Weather History for Edinburg, TX

Change the Weather History Date:

Wednesday, July 3, 2013

  Actual Average (KMFE) Record (KMFE)
Temperature  
Mean Temperature 84 °F 86 °F  
Max Temperature 97 °F 97 °F 106 °F (2008)
Min Temperature 70 °F 76 °F 68 °F (1970)
Degree Days  
Heating Degree Days 0 0  
Month to date heating degree days 0  
Since 1 June heating degree days 0  
Since 1 July heating degree days 0  
Cooling Degree Days 18 21  
Month to date cooling degree days 63  
Year to date cooling degree days 1946  
Since 1 June cooling degree days 691  
Growing Degree Days 34 (Base 50)    
Moisture  
Dew Point 62 °F    
Average Humidity 51    
Maximum Humidity 81    
Minimum Humidity 22    
Precipitation  
Precipitation 0.00 in 0.08 in 2.69 in (2006)
Month to date precipitation 0.23  
Year to date precipitation 9.59  
Sea Level Pressure  
Sea Level Pressure 29.96 in    
Wind  
Wind Speed 4 mph (SE)    
Max Wind Speed 17 mph    
Max Gust Speed 23 mph    
Visibility 7 miles    
Events      
T = Trace of Precipitation, MM = Missing Value Source: NWS Daily Summary

Daily Weather History Graph

Daily Weather History Graph

Search for Another Location

Airport:

Trip Planner

Search our weather history database for the weather conditions in past years. The results will help you decide how hot, cold, wet, or windy it might be!

Date:

Astronomy

Jul. 03, 2013 Rise Set
Actual Time 6:44 AM CDT 8:29 PM CDT
Civil Twilight 6:18 AM CDT 8:55 PM CDT
Nautical Twilight 5:46 AM CDT 9:26 PM CDT
Astronomical Twilight 5:13 AM CDT 9:59 PM CDT
Moon 3:12 AM CDT (7/3) 4:49 PM CDT (7/3)
Length of Visible Light 14h 37m
Length of Day
13h 45m
Waning Crescent, 18% of the Moon is Illuminated
Jul 3
Waning Crescent
Jul 8
New
Jul 15
First Quarter
Jul 22
Full
Jul 29
Last Quarter

Hourly Weather History & Observations

Time (CDT) Temp. Heat Index Dew Point Humidity Pressure Visibility Wind Dir Wind Speed Gust Speed Precip Events Conditions
12:15 AM 80.1 °F 82.7 °F 68.4 °F 67% 30.01 in 10.0 mi SW 3.5 mph - N/A   Clear
12:35 AM 79.5 °F - 68.2 °F 68% 30.01 in 7.0 mi SW 3.5 mph - N/A   Clear
12:55 AM 78.8 °F - 67.8 °F 69% 30.00 in 7.0 mi SW 3.5 mph - N/A   Clear
1:15 AM 78.4 °F - 68.0 °F 70% 30.01 in 7.0 mi SW 3.5 mph - N/A   Clear
1:35 AM 77.4 °F - 67.6 °F 72% 30.01 in 10.0 mi SW 3.5 mph - N/A   Clear
1:55 AM 77.0 °F - 67.5 °F 72% 30.01 in 10.0 mi Calm Calm - N/A   Clear
2:15 AM 76.5 °F - 67.5 °F 74% 30.00 in 7.0 mi Calm Calm - N/A   Clear
2:35 AM 76.1 °F - 67.1 °F 74% 30.00 in 7.0 mi Calm Calm - N/A   Clear
2:55 AM 75.4 °F - 66.4 °F 73% 29.99 in 7.0 mi Calm Calm - N/A   Clear
3:15 AM 75.2 °F - 66.6 °F 74% 29.99 in 7.0 mi Calm Calm - N/A   Clear
3:35 AM 73.8 °F - 66.4 °F 78% 29.98 in 7.0 mi Calm Calm - N/A   Clear
3:55 AM 72.9 °F - 65.7 °F 78% 29.99 in 7.0 mi Calm Calm - N/A   Clear
4:15 AM 71.8 °F - 65.1 °F 79% 29.98 in 7.0 mi Calm Calm - N/A   Clear
4:35 AM 71.6 °F - 65.5 °F 81% 29.98 in 7.0 mi Calm Calm - N/A   Clear
4:55 AM 72.9 °F - 66.4 °F 80% 29.97 in 7.0 mi Calm Calm - N/A   Clear
5:15 AM 72.9 °F - 65.7 °F 78% 29.97 in 7.0 mi Calm Calm - N/A   Clear
5:35 AM 70.9 °F - 64.8 °F 81% 29.97 in 7.0 mi Calm Calm - N/A   Clear
5:55 AM 71.2 °F - 64.4 °F 79% 29.98 in 7.0 mi Calm Calm - N/A   Clear
6:15 AM 72.0 °F - 65.3 °F 79% 29.97 in 7.0 mi Calm Calm - N/A   Clear
6:35 AM 71.8 °F - 64.4 °F 77% 29.97 in 7.0 mi Calm Calm - N/A   Clear
6:55 AM 70.7 °F - 63.5 °F 78% 29.98 in 5.0 mi Calm Calm - N/A   Haze
7:15 AM 71.1 °F - 64.4 °F 79% 29.98 in 5.0 mi Calm Calm - N/A   Haze
7:35 AM 72.3 °F - 65.7 °F 79% 29.99 in 5.0 mi Calm Calm - N/A   Haze
7:55 AM 73.9 °F - 66.7 °F 78% 30.01 in 7.0 mi Calm Calm - N/A   Clear
8:15 AM 75.7 °F - 67.1 °F 74% 30.00 in 5.0 mi Calm Calm - N/A   Haze
8:35 AM 77.4 °F - 68.0 °F 73% 30.01 in 7.0 mi Calm Calm - N/A   Clear
8:55 AM 79.2 °F - 67.3 °F 67% 30.02 in 5.0 mi Calm Calm - N/A   Haze
9:15 AM 81.1 °F 83.4 °F 66.6 °F 61% 30.02 in 7.0 mi Calm Calm - N/A   Clear
9:35 AM 82.9 °F 85.6 °F 67.1 °F 59% 30.02 in 7.0 mi Calm Calm - N/A   Clear
9:55 AM 84.2 °F 87.3 °F 68.0 °F 58% 30.02 in 7.0 mi SSW 4.6 mph - N/A   Clear
10:15 AM 85.5 °F 88.2 °F 67.3 °F 54% 30.02 in 7.0 mi Calm Calm - N/A   Clear
10:35 AM 87.1 °F 89.2 °F 66.0 °F 49% 30.02 in 7.0 mi South 3.5 mph - N/A   Clear
11:15 AM 89.2 °F 89.6 °F 61.7 °F 40% 30.02 in 7.0 mi Calm Calm - N/A   Clear
11:35 AM 90.7 °F 91.0 °F 61.9 °F 38% 30.01 in 7.0 mi ENE 3.5 mph - N/A   Clear
11:55 AM 90.9 °F 90.6 °F 60.8 °F 36% 30.01 in 10.0 mi Calm Calm - N/A   Clear
12:15 PM 92.8 °F 91.4 °F 57.6 °F 30% 30.01 in 7.0 mi East 5.8 mph - N/A   Clear
12:35 PM 93.7 °F 92.6 °F 57.7 °F 30% 29.99 in 7.0 mi SE 10.4 mph - N/A   Clear
12:55 PM 94.6 °F 92.6 °F 55.2 °F 26% 29.99 in 7.0 mi ENE 4.6 mph - N/A   Clear
1:15 PM 95.0 °F 92.7 °F 53.6 °F 25% 29.99 in 7.0 mi ESE 10.4 mph 17.3 mph N/A   Clear
1:35 PM 95.4 °F 93.2 °F 54.3 °F 25% 29.98 in 7.0 mi SE 9.2 mph 17.3 mph N/A   Clear
1:55 PM 96.1 °F 93.8 °F 53.2 °F 24% 29.97 in 7.0 mi East 8.1 mph - N/A   Clear
2:15 PM 97.0 °F 95.0 °F 54.9 °F 24% 29.97 in 7.0 mi South 4.6 mph - N/A   Clear
2:35 PM 96.3 °F - 51.8 °F 22% 29.95 in 7.0 mi ESE 9.2 mph - N/A   Clear
2:55 PM 97.5 °F 95.0 °F 53.2 °F 22% 29.94 in 7.0 mi South 8.1 mph - N/A   Clear
3:15 PM 95.4 °F - 52.7 °F 24% 29.94 in 10.0 mi East 6.9 mph - N/A   Scattered Clouds
3:35 PM 96.6 °F - 52.5 °F 23% 29.93 in 7.0 mi SSE 6.9 mph - N/A   Mostly Cloudy
3:55 PM 97.3 °F - 52.7 °F 22% 29.92 in 7.0 mi ESE 8.1 mph - N/A   Mostly Cloudy
4:15 PM 95.2 °F 93.9 °F 57.2 °F 28% 29.91 in 7.0 mi ESE 16.1 mph 23.0 mph N/A   Mostly Cloudy
4:35 PM 95.9 °F 94.6 °F 56.5 °F 27% 29.90 in 7.0 mi East 12.7 mph - N/A   Scattered Clouds
4:55 PM 95.0 °F 93.4 °F 56.5 °F 27% 29.90 in 7.0 mi SE 17.3 mph - N/A   Scattered Clouds
5:15 PM 95.2 °F 93.6 °F 55.9 °F 27% 29.90 in 7.0 mi SE 10.4 mph - N/A   Mostly Cloudy
5:35 PM 95.4 °F 93.2 °F 54.5 °F 25% 29.89 in 10.0 mi ESE 12.7 mph 21.9 mph N/A   Scattered Clouds
5:55 PM 95.0 °F 92.7 °F 54.3 °F 25% 29.88 in 7.0 mi ESE 16.1 mph - N/A   Scattered Clouds
6:15 PM 93.9 °F 92.0 °F 55.4 °F 27% 29.88 in 10.0 mi ESE 16.1 mph 20.7 mph N/A   Scattered Clouds
6:35 PM 93.2 °F 91.9 °F 57.4 °F 30% 29.88 in 7.0 mi ESE 15.0 mph 21.9 mph N/A   Clear
6:55 PM 92.3 °F 91.0 °F 57.4 °F 31% 29.88 in 7.0 mi East 16.1 mph - N/A   Clear
7:15 PM 91.0 °F 89.7 °F 57.2 °F 32% 29.89 in 5.0 mi ESE 17.3 mph - N/A   Haze
7:35 PM 90.0 °F 88.6 °F 57.4 °F 33% 29.89 in 10.0 mi ESE 15.0 mph 18.4 mph N/A   Clear
7:55 PM 89.2 °F 87.7 °F 56.7 °F 33% 29.89 in 7.0 mi ESE 15.0 mph - N/A   Clear
8:15 PM 88.5 °F 86.9 °F 56.3 °F 33% 29.90 in 7.0 mi ESE 11.5 mph 17.3 mph N/A   Clear
8:35 PM 87.4 °F 86.1 °F 56.7 °F 35% 29.90 in 7.0 mi ESE 12.7 mph - N/A   Clear
8:55 PM 86.5 °F 85.4 °F 57.2 °F 37% 29.90 in 10.0 mi ESE 10.4 mph - N/A   Clear
9:15 PM 86.0 °F 84.9 °F 57.2 °F 37% 29.91 in 10.0 mi ESE 10.4 mph - N/A   Clear
9:35 PM 85.1 °F 84.4 °F 57.9 °F 40% 29.92 in 10.0 mi ESE 9.2 mph - N/A   Clear
9:55 PM 84.2 °F 84.2 °F 59.9 °F 44% 29.93 in 7.0 mi ESE 9.2 mph - N/A   Clear
10:15 PM 83.3 °F 83.9 °F 61.9 °F 48% 29.93 in 7.0 mi SE 9.2 mph - N/A   Clear
10:35 PM 82.6 °F 83.9 °F 63.7 °F 53% 29.94 in 7.0 mi ESE 9.2 mph - N/A   Clear
10:55 PM 81.7 °F 83.5 °F 64.9 °F 57% 29.95 in 7.0 mi SE 8.1 mph - N/A   Clear
11:15 PM 80.6 °F 82.4 °F 65.3 °F 59% 29.96 in 10.0 mi SE 6.9 mph - N/A   Clear
11:35 PM 78.8 °F - 65.1 °F 63% 29.96 in 10.0 mi SE 4.6 mph - N/A   Clear
11:55 PM 77.9 °F - 65.1 °F 65% 29.97 in 10.0 mi SSE 5.8 mph - N/A   Clear